Temp_Advection
nan nan nan nan nan nan nan nan nan nan nan nan nan nan nan nan nan nan nan nan nan nan nan nan nan nan nan
nan 0 0 0 0 -0 -0 -0 -0 -0 0 -0 -0 0 -0 -0 0 0 0 0 -0 0 -0 -1 -1 -1 nan
nan 1 0 0 0 0 -0 -0 0 -0 0 0 -0 0 0 -0 -0 -0 -0 0 0 -0 -0 -0 -0 -1 nan
nan 0 0 0 -0 0 0 -0 -0 0 0 0 0 0 0 0 -0 0 0 0 1 0 -0 -0 -0 -0 nan
nan 0 0 0 0 0 -0 -1 -1 -0 -1 -0 0 0 0 0 0 -0 0 0 0 0 -0 -0 -0 -0 nan
nan 0 0 -0 -0 -0 -0 -0 -1 -1 -1 -1 -0 -0 -0 -0 0 -0 0 1 1 0 0 -0 -0 -1 nan
nan 0 0 0 -0 -0 -0 -0 -0 -0 -1 -2 -1 -1 -0 -0 -0 -0 -0 -0 0 1 1 1 -0 -0 nan
nan 0 -0 0 0 -0 -0 -0 -1 0 0 -2 -2 -1 -0 -1 -0 -0 -0 -0 -0 -0 0 1 0 -0 nan
nan 0 0 0 -0 0 0 -0 -1 -1 0 -1 -2 -3 -2 -1 -1 -0 -0 -0 -0 -0 -0 0 0 -1 nan
nan 0 -0 0 0 0 0 0 0 -1 -0 -1 -1 -2 -3 -2 -1 -1 -0 -0 -0 0 -0 -0 0 -0 nan
nan 0 0 0 0 0 0 0 0 -0 0 0 -1 -0 -1 -3 -2 -1 -1 -0 -0 -0 -0 -0 0 0 nan
nan -0 -0 -0 0 0 0 0 0 0 0 0 0 0 -0 -1 -2 -2 -1 -0 -0 -0 -0 -0 -0 0 nan
nan -0 -0 -0 -0 -0 0 0 0 0 0 0 0 0 0 -0 -1 -1 -1 -1 -0 -0 -0 -1 -0 -0 nan
nan -0 -0 -0 0 0 -0 -0 -0 -0 0 0 0 0 0 -0 -0 -0 -0 -0 -1 -0 -0 -1 -0 -0 nan
nan -0 -0 -0 -0 0 -0 -0 -0 -1 -1 -0 0 0 0 -0 -0 -1 -0 -0 -0 -0 -0 -1 -1 0 nan
nan 0 -0 -0 -0 0 0 -0 -0 -0 -0 -0 -0 -0 -0 -0 0 0 -1 -0 -0 0 0 -1 -2 -0 nan
nan nan nan nan nan nan nan nan nan nan nan nan nan nan nan nan nan nan nan nan nan nan nan nan nan nan nan
Wind_Speed
20 17 16 17 17 17 17 16 15 15 17 18 17 15 15 17 20 21 20 22 23 20 21 22 24 25 25
15 15 14 14 14 14 14 15 16 18 18 18 17 16 18 21 20 21 22 24 21 21 23 24 24 24 26
13 12 12 12 12 13 14 16 17 18 18 18 18 19 20 21 22 22 23 22 21 22 23 23 24 26 27
10 11 10 11 12 14 16 17 17 17 16 18 18 19 20 22 23 23 23 24 24 23 21 23 26 27 28
10 10 10 11 12 14 17 19 17 18 18 18 21 20 22 23 23 24 25 25 23 19 22 26 27 28 30
7 8 9 10 12 13 15 19 22 19 26 24 25 25 25 24 26 26 25 20 17 23 26 25 28 29 31
6 7 8 10 13 16 17 19 22 24 27 31 29 27 26 29 27 24 17 19 24 24 25 27 28 30 31
7 9 10 13 16 19 21 23 24 25 26 33 29 30 34 31 25 20 22 26 25 26 27 28 28 29 30
7 10 13 16 19 20 21 24 27 28 27 25 32 39 37 32 28 26 27 26 25 26 27 26 26 29 31
8 11 13 15 17 19 20 22 24 25 20 32 32 30 35 34 35 32 29 27 29 27 25 24 27 29 31
9 11 13 14 16 17 19 21 23 24 24 21 26 26 24 35 38 34 31 33 31 28 23 26 27 26 28
10 12 13 15 17 17 17 17 18 20 18 18 24 21 23 30 35 37 35 35 32 27 29 30 28 24 22
12 14 15 15 16 16 17 17 18 19 19 17 18 20 20 26 33 36 38 36 25 30 29 30 29 26 28
13 14 15 15 15 16 19 21 23 20 14 15 15 18 22 24 27 34 30 30 31 30 32 31 29 24 24
12 13 13 14 15 17 19 20 21 24 21 16 15 18 21 22 29 32 32 32 31 31 31 33 29 25 23
11 12 14 17 18 18 18 18 21 21 20 20 21 23 23 24 27 32 31 34 32 27 27 30 32 26 24
11 13 15 17 18 19 19 18 21 20 20 20 20 22 27 34 38 28 33 31 28 26 25 26 31 30 28
Wind_Direction
218 232 253 274 287 297 304 308 313 322 322 321 319 315 314 313 316 319 320 318 321 325 324 318 318 319 320
228 244 261 275 286 299 306 310 315 319 321 320 316 313 312 314 314 315 314 318 320 318 317 319 318 316 314
241 249 265 278 292 299 304 306 309 312 317 315 315 316 316 314 312 313 314 316 317 315 316 315 313 315 315
263 272 276 290 299 302 302 300 308 309 313 308 312 314 311 309 309 316 318 317 314 314 315 310 312 313 314
268 272 284 294 297 303 308 310 314 315 312 308 310 314 314 311 314 316 316 314 311 315 309 309 309 308 310
273 289 297 303 307 313 315 319 323 323 315 313 315 316 314 313 318 319 316 314 315 312 314 311 309 310 307
277 288 300 308 311 312 314 315 314 317 314 312 317 314 314 316 321 323 324 322 319 317 314 315 313 311 310
287 293 299 303 305 307 309 307 308 309 313 310 319 316 317 320 325 332 333 329 325 320 319 318 315 312 310
276 285 293 293 295 300 300 307 311 315 318 314 320 318 321 323 327 330 332 325 327 327 325 319 315 314 311
270 282 289 295 295 298 305 307 309 321 313 313 319 326 323 320 318 322 328 327 331 326 322 321 319 318 315
297 302 305 304 301 303 307 305 306 304 319 318 315 322 314 310 313 321 326 326 327 326 321 323 322 323 319
301 304 308 311 313 316 316 315 315 319 325 315 308 315 312 310 313 321 325 325 328 326 325 324 323 325 324
307 310 316 319 320 318 318 315 312 315 316 311 307 307 305 308 311 316 324 326 330 328 325 324 326 329 329
308 314 319 317 319 319 320 319 316 319 316 313 308 308 310 309 310 317 324 321 327 329 325 323 324 326 327
310 315 317 316 317 318 317 315 312 318 323 322 313 309 310 314 316 321 325 325 327 327 322 320 322 321 324
314 314 312 315 317 319 321 314 311 318 323 327 328 324 321 318 329 324 321 323 325 322 322 319 319 322 324
311 313 317 321 323 323 322 317 318 320 323 330 332 333 329 323 326 329 320 323 320 318 319 320 317 321 324
Height
1554 1554 1553 1552 1552 1549 1549 1548 1546 1544 1543 1539 1538 1536 1532 1529 1526 1524 1520 1518 1516 1514 1512 1509 1506 1503 1500
1551 1551 1550 1550 1548 1546 1546 1545 1542 1541 1538 1536 1535 1532 1530 1525 1520 1518 1515 1514 1510 1510 1506 1503 1500 1496 1493
1547 1547 1546 1544 1543 1541 1542 1543 1540 1537 1535 1534 1533 1530 1526 1523 1519 1515 1510 1508 1506 1503 1501 1498 1493 1489 1487
1545 1544 1544 1540 1538 1537 1537 1538 1535 1532 1530 1528 1527 1525 1522 1518 1515 1511 1506 1502 1500 1498 1495 1492 1487 1483 1480
1543 1543 1540 1537 1536 1535 1533 1533 1531 1528 1526 1525 1524 1520 1518 1514 1509 1506 1502 1498 1494 1492 1490 1485 1481 1477 1473
1539 1540 1539 1537 1536 1532 1529 1527 1525 1524 1519 1520 1516 1516 1512 1508 1504 1501 1496 1492 1489 1486 1481 1478 1474 1470 1466
1534 1536 1535 1534 1533 1533 1528 1524 1522 1521 1517 1510 1514 1509 1506 1502 1499 1495 1491 1487 1483 1479 1475 1471 1467 1462 1458
1534 1535 1533 1531 1531 1526 1524 1522 1518 1517 1514 1508 1505 1500 1498 1496 1492 1490 1486 1482 1478 1474 1469 1465 1460 1455 1451
1529 1530 1529 1529 1526 1523 1521 1518 1513 1511 1509 1504 1499 1492 1489 1486 1485 1484 1482 1478 1474 1469 1464 1459 1454 1449 1442
1527 1528 1525 1524 1523 1520 1515 1513 1512 1505 1506 1502 1496 1493 1483 1479 1479 1479 1476 1472 1468 1464 1459 1454 1449 1442 1436
1524 1522 1522 1519 1521 1519 1511 1509 1507 1504 1503 1499 1494 1492 1490 1479 1473 1472 1470 1465 1462 1458 1453 1449 1444 1439 1432
1520 1519 1517 1516 1516 1511 1507 1506 1503 1501 1499 1497 1492 1490 1486 1479 1471 1466 1464 1460 1456 1451 1446 1441 1438 1434 1430
1516 1516 1514 1512 1510 1506 1504 1501 1500 1498 1496 1493 1490 1486 1483 1477 1470 1463 1457 1451 1450 1446 1440 1435 1430 1427 1420
1513 1511 1509 1507 1506 1503 1500 1497 1494 1493 1493 1490 1487 1482 1477 1473 1468 1460 1457 1450 1445 1441 1434 1429 1426 1423 1418
1509 1506 1505 1504 1502 1500 1497 1493 1491 1488 1485 1484 1482 1478 1474 1468 1462 1457 1450 1445 1441 1435 1430 1423 1420 1417 1414
1505 1503 1502 1500 1498 1496 1494 1491 1488 1486 1481 1479 1475 1470 1467 1463 1461 1451 1447 1441 1435 1431 1427 1420 1413 1412 1409
1502 1500 1498 1497 1495 1492 1490 1488 1485 1482 1479 1475 1471 1467 1461 1455 1452 1450 1442 1436 1430 1426 1422 1418 1411 1406 1403